Location: Kernascl�den
(48.0062°N, 3.3198°W)
Time: 23:00:26
(UTC+00:00)

CSL-04 Debris - Pass Details

Date: 21 January 2021
Orbit: 827 x 847 km, 98.9° (Epoch: 04 March)

Event Time Altitude Azimuth Distance (km) Brightness Sun altitude
Rises 19:05:18 0° 162° (SSE) 3,360 7.2 -21.2°
Reaches altitude 10° 19:07:38 10° 161° (SSE) 2,429 6.5 -21.6°
Maximum altitude 19:13:01 86° 76° (ENE) 837 4.0 -22.5°
Drops below altitude 10° 19:18:27 10° 346° (NNW) 2,443 6.7 -23.4°
Sets 19:20:48 0° 346° (NNW) 3,381 7.5 -23.8°
